www.pogodaiklimat.ru

Погода и климат >> Архив погоды >> Филиппины >> Генерал-Сантос


ПОГОДА в Генерал-Сантосе

  • Прогноз погоды в Генерал-Сантосе
  • Монитор погоды в Генерал-Сантосе

АРХИВ ПОГОДЫ в Генерал-Сантосе

Время (UTC), дата Ветер
(напр.,м/с)
 
Видим.   Явления Облачность Т
(С)
Тd
(С)
f
(%)
Тe
(С)
Тes
(С)
Комфортность P
(гПа)
Po
(гПа)
Тmin
(С)
Tmax
(С)
R
(мм)
R24
(мм)
S
(см)
15 9.07 штиль 0 20 км 4/3 600 м
[Cu med, cong Ac As]
+23.5 +22.1 92 +30 +30 очень
душно
1011.6 996.7
18 9.07 штиль 0 20 км 4/3 600 м
[Cu med, cong Ac As]
+23.3 +22.0 92 +32 +32 очень
душно
1010.4 995.4
21 9.07 штиль 0 20 км 1/1 540 м
[Cu med, cong Ci fib]
+22.2 +20.6 91 +29 +29 очень
душно
1010.6 995.5
00 10.07 С 1 20 км мгла {дождь} 6/3 600 м
[Cu hum Cs]
+27.1 +22.8 77 +36 +41 очень
душно
1011.4 996.4 +21.3 10
03 10.07 Ю 2 20 км осадки на расстоянии {туман} 6/4 540 м
[Cb cap Ac As Cs]
+29.5 +22.7 67 +39 +49 очень
душно
1011.3 996.4
06 10.07 Ю 4 20 км осадки на расстоянии {туман} 8/4 540 м
[Cb cap Ac As Cs]
+31.0 +21.8 58 +39 +43 очень
душно
1009.4 994.5
09 10.07 ЮВ 3 20 км в посл. час ливневой дождь {туман} 6/3 540 м
[Sc Ac As Cs]
+27.2 +23.4 80 +37 +37 очень
душно
1009.6 994.6 0.0
12 10.07 СЗ 1 20 км в посл. час ливневой дождь 5/3 540 м
[Sc Ac As]
+24.5 +22.9 91 +32 +32 очень
душно
1011.8 996.8 +31.0 2
15 10.07 Ю 1 20 км в посл. час ливневой дождь 4/3 600 м
[Cu hum Ac As]
+24.3 +23.1 93 +32 +32 очень
душно
1012.5 997.6 0.0
18 10.07 штиль 0 20 км {ливн. осадки} 10/3 540 м
[Cu med, cong Ac As]
+25.0 +22.7 87 +33 +33 очень
душно
1011.5 996.6 0.0
21 10.07 штиль 0 20 км 8/1 540 м
[Cu med, cong Cs]
+23.7 +22.2 91 +31 +31 очень
душно
1012.0 997.0
00 11.07 штиль 0 18 км слаб. ливневой дождь 10/4 540 м
[St As trans]
+24.7 +23.3 92 +33 +35 очень
душно
1014.1 999.0 +22.5 2
03 11.07 В 2 20 км мгла {туман} 9/3 600 м
[Cu med, cong Ac As Cs]
+26.5 +23.5 84 +36 +44 очень
душно
1013.0 998.0
06 11.07 Ю 2 20 км {туман} 9/4 600 м
[Cb calv Ac As Ci fib]
+29.3 +22.8 68 +39 +44 очень
душно
1010.8 995.8
09 11.07 В 1 20 км 10/1 540 м
[Cu med, cong Ac As]
+27.2 +22.9 77 +36 +36 очень
душно
1011.0 996.0
12 11.07 штиль 0 20 км 9/1 540 м
[Cu med, cong Cs]
+25.5 +23.5 89 +35 +35 очень
душно
1012.8 997.8 +29.5
15 11.07 З 1 20 км 10/1 540 м
[Cu med, cong Ac As]
+25.0 +23.0 89 +33 +33 очень
душно
1012.5 997.5
18 11.07 штиль 0 20 км 10/1 540 м
[Cu med, cong Ac As]
+24.6 +23.0 91 +33 +33 очень
душно
1010.0 995.0
21 11.07 штиль 0 20 км в посл. час ливневой дождь 10/1 540 м
[Cb cap Ac As]
+24.0 +22.6 92 +31 +31 очень
душно
1011.0 996.0 0.0
00 12.07 штиль 0 10 км слаб. дождь 10/4 540 м
[St As trans]
+24.3 +23.6 96 +33 +35 очень
душно
1012.0 997.0 +23.0 1
03 12.07 штиль 0 10 км слаб. дождь 10/4 540 м
[St As op]
+24.0 +22.6 92 +31 +35 очень
душно
1012.0 997.0 1
06 12.07 В 1 20 км слаб. ливневой дождь 10/4 540 м
[St As op]
+25.0 +23.6 92 +34 +36 очень
душно
1010.3 995.3 2
09 12.07 ЮВ 1 20 км 10/3 540 м
[Sc As trans]
+24.4 +23.2 93 +33 +33 очень
душно
1009.4 994.4 0.0
12 12.07 штиль 0 20 км {дождь} 10/1 540 м
[Sc Ac As]
+24.0 +22.6 92 +31 +31 очень
душно
1012.0 997.0 +25.0 0.0
15 12.07 З 1 20 км 10/1 540 м
[Cu med, cong Ac As]
+25.0 +23.0 89 +33 +33 очень
душно
1012.5 997.5
18 12.07 штиль 0 20 км 8/1 540 м
[Cu hum Ac As]
+23.7 +22.8 95 +31 +31 очень
душно
1010.0 995.0
21 12.07 штиль 0 20 км 10/1 540 м
[Cu hum Ac As]
+23.2 +21.5 90 +31 +31 очень
душно
1010.0 995.0
00 13.07 С 1 20 км мгла {туман} 9/1 540 м
[Cu hum Ac As]
+25.2 +23.6 91 +34 +37 очень
душно
1011.2 996.2 +22.5 2
03 13.07 Ю 2 20 км осадки на расстоянии {туман} 10/4 540 м
[Sc As trans]
+26.0 +24.0 89 +36 +41 очень
душно
1011.0 996.0
06 13.07 С 1 20 км {туман} 10/1 540 м
[Cu med, cong Ac As]
+28.0 +23.3 76 +38 +42 очень
душно
1008.5 993.5
09 13.07 СЗ 3 20 км осадки на расстоянии 10/1 540 м
[Cb calv As trans]
+26.5 +23.8 85 +36 +37 очень
душно
1008.4 993.4
12 13.07 С 1 20 км осадки на расстоянии 10/3 540 м
[Sc Ac As]
+24.0 +22.6 92 +31 +31 очень
душно
1010.5 995.5 +29.0
15 13.07 штиль 0 20 км слаб. ливневой дождь 10/3 540 м
[Sc As trans]
+24.0 +22.9 94 +32 +32 очень
душно
1011.5 996.5 0.0
18 13.07 штиль 0 20 км {ливн. осадки} 10/1 540 м
[Cu med, cong Ac As]
+24.0 +22.6 92 +31 +31 очень
душно
1009.9 994.9 0.0
21 13.07 штиль 0 20 км слаб. ливневой дождь 10/3 540 м
[Sc As op]
+23.5 +22.5 94 +31 +31 очень
душно
1010.0 995.0 1
00 14.07 В 1 10 км дождь {ливн. осадки} 10/4 540 м
[St As op]
+24.2 +23.2 94 +32 +33 очень
душно
1010.8 995.8 +22.5 3
03 14.07 ЮВ 1 20 км слаб. дождь 10/3 540 м
[St As op]
+25.6 +24.2 92 +35 +39 очень
душно
1010.0 995.0 2
06 14.07 ЮЗ 1 20 км слаб. ливневой дождь 10/3 540 м
[St As trans]
+27.0 +23.9 83 +37 +42 очень
душно
1008.3 993.5 3
09 14.07 Ю 3 н/о слаб. ливневой дождь 10/4 540 м
[St As op]
+23.5 +22.8 96 +31 +31 очень
душно
1008.3 993.5 1
12 14.07 Ю 1 15 км слаб. дождь 10/4 540 м
[St As op]
+23.2 +22.5 96 +32 +32 очень
душно
1010.4 995.6 +28.8 17
15 14.07 СЗ 1 15 км слаб. дождь 10/4 540 м
[St As op]
+23.0 +21.6 92 +31 +31 очень
душно
1010.8 996.0 2
18 14.07 штиль 0 18 км слаб. дождь 10/4 540 м
[St As op]
+23.1 +22.5 96 +32 +32 очень
душно
1008.8 994.0 4
21 14.07 штиль 0 15 км {дождь} 10/1 540 м
[Cu hum Ac As]
+23.0 +21.6 92 +31 +31 очень
душно
1008.0 993.2 0.0
00 15.07 штиль 0 20 км мгла {туман} 10/1 540 м
[Sc Ac As]
+24.5 +22.2 87 +32 +34 очень
душно
1009.7 994.9 +22.5 25
03 15.07 ЮВ 3 20 км мгла {туман} 9/3 540 м
[Cu med, cong Ac As]
+28.0 +24.0 79 +39 +44 очень
душно
1008.6 993.8
06 15.07 Ю 5 20 км мгла {туман} 8/3 540 м
[Cu med, cong Ac As Ci fib]
+28.3 +23.2 74 +38 +41 очень
душно
1006.3 991.5
09 15.07 Ю 1 20 км осадки на расстоянии {ливн. осадки} 10/3 540 м
[Sc As trans]
+26.2 +23.2 84 +35 +36 очень
душно
1006.8 991.8 0.0
12 15.07 Ю 3 20 км слаб. ливневой дождь 10/3 540 м
[Sc As trans Cs]
+24.5 +22.0 86 +32 +32 очень
душно
1008.7 993.7 +28.9 0.0
15 15.07 штиль 0 20 км слаб. ливневой дождь 10/3 540 м
[Sc As trans Cs]
+24.3 +22.9 92 +32 +32 очень
душно
1009.2 994.3 0.0
18 15.07 ЮЗ 1 20 км слаб. дождь 10/4 540 м
[St As op]
+24.3 +22.2 88 +32 +32 очень
душно
1007.9 993.0 3
21 15.07 ЮЗ 3 20 км слаб. ливневой дождь 10/4 540 м
[Sc As trans]
+24.0 +22.1 89 +31 +31 очень
душно
1009.0 994.0 0.0
00 16.07 ЮЗ 4 15 км слаб. ливневой дождь 10/5 540 м
[St As op]
+25.7 +24.1 91 +36 +36 очень
душно
1010.0 995.0 +22.7 6
03 16.07 Ю 3 18 км мгла 10/4 540 м
[Sc Ac As Cs]
+28.0 +24.0 79 +39 +44 очень
душно
1008.4 993.5 0.0
06 16.07 ЮЗ 6 20 км осадки на расстоянии {ливн. осадки, туман} 8/3 540 м
[Sc Ac As Cs]
+29.0 +22.8 69 +38 +41 очень
душно
1006.7 991.8 0.0
09 16.07 Ю 2 20 км осадки на расстоянии {туман} 9/3 540 м
[Sc As trans Cs]
+26.9 +23.3 81 +36 +37 очень
душно
1006.9 992.0

 

Местоположение метеостанции Генерал-Сантос (Филиппины): широта 6.12 долгота 125.18 высота над уровнем моря 15 м.

В архиве по умолчанию представлена погода в Генерал-Сантосе за последнюю неделю. Архивные данные за месяц целиком и за предыдущие месяцы, начиная с января 2011 года, Вы можете получить, выбрав интересующий диапазон дат из раскрывающегося списка и нажав кнопку "Ввод!".


*Определитесь, кто Вы:
робот инопланетянин человек

Внимание! Время в таблицах - всемирное. Для получения местного времени необходимо прибавить поправку, которая равна 8 ч.

Смотрите также архив погоды в соседних городах и на ближайших метеорологических станциях:

Погода в Давао (Филиппины) (123 км)
Погода в Котобато (Филиппины) (158 км)
Погода в Малайбалае (Филиппины) (226 км)
Погода в Кагаян-де-Оро (Филиппины) (275 км)
Погода в Хинатуане (Филиппины) (281 км)
Погода в Бутуане (Филиппины) (315 км)
Погода в Дипологе (Филиппины) (342 км)
Погода в Замбоанге (Филиппины) (356 км)
Погода в Думагете (Филиппины) (410 км)
Погода в Серигао Сити (Филиппины) (411 км)

Пояснения к столбцам:

Ветер - указаны скорость ветра в м/с - средняя за 10 мин, порывы в срок и между сроками (в фигурных скобках) и направление, откуда дует ветер: С - северный, СВ - северо-восточный, В - восточный, ЮВ - юго-восточный, Ю - южный, ЮЗ - юго-западный, З - западный, СЗ - северо-западный.
Видимость - горизонтальная дальность видимости в метрах или километрах. При видимости от 1 до 10 км при отсутствии осадков обычно наблюдается дымка, при ухудшении видимости до 1 км и менее - туман. В сухую погоду видимость может ухудшаться дымом, пылью или мглою.
Явления - указаны атмосферные явления, наблюдавшиеся в срок или в последний час перед сроком; фигурными скобками обозначены явления, наблюдавшиеся между сроками (за 1-3 часа до срока); квадратными скобками обозначены град или гололедные отложения с указанием их диаметра в мм.
Облачность - указаны через наклонную черту общая и нижняя облачность в баллах и высота нижней границы облаков в метрах; квадратными скобками обозначены формы облаков: Ci - перистые, Cs - перисто-слоистые, Cc - перисто-кучевые, Ac - высококучевые, As - высокослоистые, Sc - слоисто-кучевые, Ns - слоисто-дождевые, Cu - кучевые, Cb - кучево-дождевые. Подробнее классификацию облаков см. в Атласе облаков (PDF).
T - Температура воздуха - температура, измеренная на высоте 2 м над землей.
Td - Температура точки росы - температура, при понижении до которой содержащийся в воздухе водяной пар достигнет насыщения.
f - Относительная влажность воздуха - влажноcть воздуха, измеренная на высоте 2 м над землей.
Te - Эффективная температура - температура, которую ощущает одетый по сезону человек в тени. Характеристика душности погоды. При расчете учитывается влияние влажности воздуха и скорости ветра на теплоощущения человека.
Tes - Эффективная температура на солнце - температура, которую ощущает человек, с поправкой на солнечный нагрев. Характеристика знойности погоды. Зависит от высоты солнца над горизонтом, облачности и скорости ветра. Ночью, в пасмурную погоду, а также при ветре 12 м/с и более поправка равна нулю.
P - Атмосферное давление - приведенное к уровню моря атмосферное давление.
Po - Атмосферное давление - измеренное на уровне метеостанции атмосферное давление.
Tmin - Минимальная температура - минимум температуры воздуха на высоте 2 м над землей.
Tmax - Максимальная температура - максимум температуры воздуха на высоте 2 м над землей.
R - Количество осадков - Количество выпавших осадков за период времени, мм. При наведении курсора мыши на число - период времени, за который выпало указанное количество осадков.
R24 - Количество осадков - Количество выпавших осадков за 24 часа, мм.
S - Снежный покров - Высота снежного покрова, см. При наведении курсора мыши на число - состояние снежного покрова и степень покрытия местности в баллах.